This is the latest recevied weather packets stored in our database for station/object W8KHW. If no packets are shown the sender has not sent any weather packets the latest 10 day(s).
| Time | Temp. | Humidity | Pressure | Rain* | Wind** | Luminosity | Snow |
|---|---|---|---|---|---|---|---|
| 1778040516 | 10° C | 99% | 1008.1 hPa | 1.52 mm | - | - | - |
| 1778040016 | 10° C | 99% | 1008.4 hPa | 2.03 mm | - | - | - |
| 1778039516 | 10° C | 99% | 1008.3 hPa | 2.79 mm | - | - | - |
| 1778039016 | 10° C | 99% | 1008.4 hPa | 2.79 mm | - | - | - |
| 1778038516 | 10° C | 99% | 1008.5 hPa | 2.79 mm | - | - | - |
| 1778038016 | 10° C | 99% | 1008.5 hPa | 2.79 mm | - | - | - |
| 1778037515 | 10.56° C | 99% | 1008.8 hPa | 2.79 mm | - | - | - |
| 1778037015 | 11.11° C | 99% | 1008.9 hPa | 2.54 mm | - | - | - |
| 1778036515 | 11.67° C | 99% | 1009.2 hPa | 2.03 mm | - | - | - |
| 1778036015 | 12.22° C | 99% | 1009 hPa | 1.78 mm | - | - | - |
| 1778035514 | 14.44° C | 99% | 1009 hPa | 1.78 mm | - | - | - |
| 1778035015 | 14.44° C | 99% | 1008.4 hPa | 2.29 mm | - | - | - |
| 1778034514 | 15° C | 99% | 1008.3 hPa | 2.29 mm | - | - | - |
| 1778034014 | 15° C | 99% | 1008.5 hPa | 2.54 mm | - | - | - |
| 1778033514 | 15° C | 99% | 1008.7 hPa | 2.29 mm | - | - | - |
| 1778033014 | 15° C | 99% | 1008.4 hPa | 2.29 mm | - | - | - |
| 1778032513 | 15° C | 99% | 1008.7 hPa | 2.03 mm | - | - | - |
| 1778032013 | 15° C | 99% | 1008.5 hPa | 1.52 mm | - | - | - |
| 1778031513 | 15° C | 99% | 1008.7 hPa | 1.02 mm | - | - | - |
| 1778031013 | 15° C | 99% | 1008.5 hPa | 1.02 mm | - | - | - |
| 1778030512 | 15° C | 99% | 1008.3 hPa | 1.02 mm | - | - | - |
| 1778030012 | 15° C | 99% | 1008 hPa | 0.76 mm | - | - | - |
| 1778029512 | 15° C | 99% | 1007.7 hPa | 0.76 mm | - | - | - |
| 1778029012 | 15° C | 99% | 1007.9 hPa | 0.76 mm | - | - | - |
| 1778028512 | 15.56° C | 99% | 1007.9 hPa | 1.02 mm | - | - | - |
* Rain latest hour (hover to see other rain measurements)
** Current wind speed in m/s (hover to see current wind gust speed)